• In Hungary
  • List of Countries
  • For 7 days
  • Water Temperature
  • Satellite Maps
  • Weather Map
  • News
  • Weather Widgets
  • user-avatar
    Login

    Hourly Weather Haltern

    Today, 22 November, Wednesday

    Time Temperature Precipitation Wind Pressure Humidity
    00:00 +9°C° 0 mm 6 mps 752 mmHg 84%
    01:00 +9°C° 0.1 mm 7 mps 751 mmHg 84%
    02:00 +9°C° 0.1 mm 7 mps 751 mmHg 84%
    03:00 +9°C° 0.1 mm 7 mps 751 mmHg 84%
    04:00 +9°C° 0 mm 7 mps 750 mmHg 84%
    05:00 +9°C° 0 mm 7 mps 750 mmHg 84%
    06:00 +9°C° 0 mm 7 mps 750 mmHg 84%
    07:00 +9°C° 0 mm 6 mps 750 mmHg 83%
    08:00 +9°C° 0 mm 6 mps 751 mmHg 82%
    09:00 +9°C° 0 mm 6 mps 751 mmHg 81%
    10:00 +9°C° 0 mm 6 mps 751 mmHg 77%
    11:00 +10°C° 0 mm 6 mps 750 mmHg 72%
    12:00 +11°C° 0 mm 6 mps 750 mmHg 67%
    13:00 +12°C° 0 mm 5 mps 750 mmHg 66%
    14:00 +12°C° 0 mm 5 mps 750 mmHg 64%
    15:00 +12°C° 0 mm 5 mps 749 mmHg 62%
    16:00 +10°C° 0 mm 5 mps 749 mmHg 62%
    17:00 +10°C° 0 mm 5 mps 749 mmHg 61%
    18:00 +9°C° 0 mm 6 mps 749 mmHg 61%
    19:00 +9°C° 0 mm 6 mps 748 mmHg 60%
    20:00 +9°C° 0 mm 6 mps 748 mmHg 59%
    21:00 +9°C° 0 mm 6 mps 748 mmHg 58%
    22:00 +9°C° 0 mm 6 mps 748 mmHg 57%
    23:00 +9°C° 0 mm 6 mps 747 mmHg 56%

    Tomorrow, 23 November, Thursday

    Time Temperature Precipitation Wind Pressure Humidity
    00:00 +9°C° 0 mm 6 mps 747 mmHg 55%
    01:00 +9°C° 0 mm 6 mps 747 mmHg 56%
    02:00 +9°C° 0 mm 6 mps 746 mmHg 57%
    03:00 +9°C° 0 mm 7 mps 746 mmHg 57%
    04:00 +10°C° 0 mm 7 mps 746 mmHg 59%
    05:00 +10°C° 0 mm 8 mps 746 mmHg 61%
    06:00 +10°C° 0 mm 8 mps 746 mmHg 62%
    07:00 +11°C° 0 mm 8 mps 746 mmHg 63%
    08:00 +11°C° 0 mm 9 mps 746 mmHg 64%
    09:00 +12°C° 0 mm 9 mps 746 mmHg 64%
    10:00 +12°C° 0 mm 9 mps 746 mmHg 64%
    11:00 +13°C° 0 mm 9 mps 747 mmHg 64%
    12:00 +13°C° 0 mm 8 mps 747 mmHg 63%
    13:00 +13°C° 0.2 mm 8 mps 747 mmHg 66%
    14:00 +13°C° 0.2 mm 8 mps 748 mmHg 69%
    15:00 +13°C° 0.2 mm 8 mps 748 mmHg 72%
    16:00 +12°C° 0.2 mm 7 mps 749 mmHg 73%
    17:00 +11°C° 0.2 mm 6 mps 750 mmHg 73%
    18:00 +10°C° 0.2 mm 5 mps 751 mmHg 74%
    19:00 +10°C° 0 mm 5 mps 752 mmHg 74%
    20:00 +10°C° 0 mm 4 mps 752 mmHg 74%
    21:00 +10°C° 0 mm 4 mps 752 mmHg 75%
    22:00 +10°C° 0.1 mm 4 mps 752 mmHg 77%
    23:00 +10°C° 0.1 mm 4 mps 752 mmHg 80%

    Day after tomorrow, 24 November, Friday

    Time Temperature Precipitation Wind Pressure Humidity
    00:00 +11°C° 0.1 mm 4 mps 751 mmHg 83%
    01:00 +10°C° 0.2 mm 5 mps 751 mmHg 81%
    02:00 +11°C° 0.2 mm 6 mps 751 mmHg 80%
    03:00 +12°C° 0.2 mm 7 mps 750 mmHg 78%
    04:00 +11°C° 0.2 mm 7 mps 751 mmHg 80%
    05:00 +11°C° 0.2 mm 6 mps 751 mmHg 82%
    06:00 +11°C° 0.2 mm 6 mps 751 mmHg 83%
    07:00 +12°C° 0.7 mm 5 mps 752 mmHg 84%
    08:00 +11°C° 0.7 mm 4 mps 752 mmHg 86%
    09:00 +11°C° 0.7 mm 4 mps 752 mmHg 87%
    10:00 +11°C° 0.4 mm 4 mps 752 mmHg 87%
    11:00 +11°C° 0.4 mm 4 mps 752 mmHg 86%
    12:00 +11°C° 0.4 mm 3 mps 752 mmHg 85%
    13:00 +10°C° 1.1 mm 3 mps 752 mmHg 86%
    14:00 +10°C° 1.1 mm 3 mps 752 mmHg 88%
    15:00 +9°C° 1.1 mm 3 mps 752 mmHg 89%
    16:00 +9°C° 1.1 mm 3 mps 751 mmHg 89%
    17:00 +10°C° 1.1 mm 3 mps 751 mmHg 90%
    18:00 +10°C° 1.1 mm 3 mps 751 mmHg 90%
    19:00 +10°C° 0.2 mm 3 mps 750 mmHg 89%
    20:00 +11°C° 0.2 mm 4 mps 750 mmHg 88%
    21:00 +11°C° 0.2 mm 4 mps 749 mmHg 87%
    22:00 +10°C° 0.6 mm 5 mps 748 mmHg 87%
    23:00 +10°C° 0.6 mm 5 mps 748 mmHg 87%

    25 November, Saturday

    Time Temperature Precipitation Wind Pressure Humidity
    00:00 +12°C° 0.6 mm 5 mps 747 mmHg 87%
    01:00 +12°C° 0.6 mm 5 mps 746 mmHg 87%
    02:00 +12°C° 0.6 mm 5 mps 745 mmHg 87%
    03:00 +12°C° 0.6 mm 5 mps 744 mmHg 88%
    04:00 +10°C° 1 mm 6 mps 743 mmHg 84%
    05:00 +10°C° 1 mm 7 mps 743 mmHg 81%
    06:00 +9°C° 1 mm 8 mps 742 mmHg 78%
    07:00 +7°C° 0.2 mm 9 mps 743 mmHg 74%
    08:00 +6°C° 0.2 mm 10 mps 744 mmHg 71%
    09:00 +5°C° 0.2 mm 10 mps 746 mmHg 67%
    10:00 +5°C° 0.2 mm 10 mps 747 mmHg 65%
    11:00 +5°C° 0.2 mm 10 mps 749 mmHg 62%
    12:00 +5°C° 0.2 mm 10 mps 750 mmHg 60%
    13:00 +3°C° 0.1 mm 9 mps 751 mmHg 60%
    14:00 +4°C° 0.1 mm 8 mps 752 mmHg 60%
    15:00 +2°C° 0.1 mm 8 mps 753 mmHg 60%
    16:00 +3°C° 0 mm 7 mps 753 mmHg 61%
    17:00 +3°C° 0 mm 7 mps 753 mmHg 62%
    18:00 +2°C° 0 mm 7 mps 753 mmHg 62%
    19:00 +2°C° 0 mm 7 mps 753 mmHg 63%
    20:00 +2°C° 0 mm 7 mps 754 mmHg 64%
    21:00 +2°C° 0 mm 7 mps 754 mmHg 64%
    22:00 +2°C° 0 mm 7 mps 754 mmHg 66%
    23:00 +2°C° 0 mm 7 mps 754 mmHg 67%

    26 November, Sunday

    Time Temperature Precipitation Wind Pressure Humidity
    00:00 +2°C° 0 mm 7 mps 754 mmHg 68%
    01:00 +2°C° 0 mm 7 mps 754 mmHg 68%
    02:00 +2°C° 0 mm 7 mps 754 mmHg 68%
    03:00 +2°C° 0 mm 7 mps 754 mmHg 68%
    04:00 +1°C° 0.2 mm 8 mps 753 mmHg 68%
    05:00 +1°C° 0.2 mm 9 mps 753 mmHg 67%
    06:00 +1°C° 0.2 mm 10 mps 753 mmHg 67%
    07:00 +2°C° 0.8 mm 9 mps 753 mmHg 69%
    08:00 +2°C° 0.8 mm 9 mps 754 mmHg 72%
    09:00 +2°C° 0.8 mm 9 mps 754 mmHg 74%
    10:00 +4°C° 0.2 mm 8 mps 754 mmHg 75%
    11:00 +4°C° 0.2 mm 8 mps 755 mmHg 75%
    12:00 +4°C° 0.2 mm 8 mps 755 mmHg 75%
    13:00 +4°C° 0.2 mm 7 mps 756 mmHg 75%
    14:00 +4°C° 0.2 mm 7 mps 756 mmHg 74%
    15:00 +4°C° 0.2 mm 6 mps 756 mmHg 74%
    16:00 +4°C° 0.4 mm 6 mps 756 mmHg 76%
    17:00 +3°C° 0.4 mm 5 mps 756 mmHg 79%
    18:00 +3°C° 0.4 mm 5 mps 757 mmHg 81%
    19:00 +3°C° 0.9 mm 5 mps 757 mmHg 79%
    20:00 +3°C° 0.9 mm 5 mps 757 mmHg 78%
    21:00 +3°C° 0.9 mm 5 mps 757 mmHg 77%
    22:00 +3°C° 0.1 mm 5 mps 757 mmHg 76%
    23:00 +2°C° 0.1 mm 5 mps 758 mmHg 75%

    27 November, Monday

    Time Temperature Precipitation Wind Pressure Humidity
    00:00 +2°C° 0.1 mm 5 mps 758 mmHg 74%
    01:00 +2°C° 0 mm 5 mps 758 mmHg 75%
    02:00 +1°C° 0 mm 5 mps 759 mmHg 75%
    03:00 +1°C° 0 mm 5 mps 759 mmHg 76%
    04:00 +1°C° 0 mm 5 mps 760 mmHg 77%
    05:00 +1°C° 0 mm 5 mps 760 mmHg 77%
    06:00 +1°C° 0 mm 5 mps 760 mmHg 77%
    07:00 +1°C° 0 mm 5 mps 761 mmHg 77%
    08:00 +1°C° 0 mm 5 mps 761 mmHg 77%
    09:00 +1°C° 0 mm 5 mps 761 mmHg 77%
    10:00 +2°C° 0 mm 5 mps 760 mmHg 74%
    11:00 +3°C° 0 mm 6 mps 760 mmHg 70%
    12:00 +4°C° 0 mm 6 mps 760 mmHg 67%
    13:00 +3°C° 0 mm 6 mps 759 mmHg 69%
    14:00 +3°C° 0 mm 5 mps 759 mmHg 71%
    15:00 +3°C° 0 mm 5 mps 758 mmHg 73%
    16:00 +3°C° 0 mm 6 mps 758 mmHg 74%
    17:00 +3°C° 0 mm 6 mps 757 mmHg 75%
    18:00 +3°C° 0 mm 7 mps 756 mmHg 77%
    19:00 +3°C° 0 mm 6 mps 756 mmHg 76%
    20:00 +3°C° 0 mm 6 mps 755 mmHg 75%
    21:00 +3°C° 0 mm 6 mps 754 mmHg 75%
    22:00 +2°C° 0 mm 7 mps 753 mmHg 74%
    23:00 +2°C° 0 mm 7 mps 753 mmHg 73%
    Show more